sat.trackr.live / text

‹ back to catalog

HULIANWANG DIGUI-71

NORAD 65231 · 2025-178D

PAYLOAD ACTIVE UNKNOWN

§ Identity

Operator
Country
PRC
Launch date
2025-08-17
Launch site
TAISC
Launch vehicle
Mass (kg)
RCS (m²)

External: N2YO · Heavens-Above · Gunter

§ Orbital elements

Epoch: 2026-09-20T21:40:14.784960Z

Period
108.73 min
Inclination
86.5053°
Eccentricity
0.0001636
Mean motion
13.24413733 rev/d
Perigee alt
1,166.7 km
Apogee alt
1,169.1 km
Semi-major
7,546.0 km
B*
-9.3125e-6
RAAN
341.2925°
Arg perigee
107.8350°
Mean anomaly
252.2963°
Rev number
5,298

§ Raw data

HULIANWANG DIGUI-711 65231U 25178D   26263.90294890  .00000011  00000+0 -93125-5 0  99972 65231  86.5053 341.2925 0001636 107.8350 252.2963 13.24413733 52986

JSON: /api/v1/satellites/65231 · /tle

For live sub-satellite position, see the globe view (requires WebGL).

§ Visibility from observer

Set your observer location to see the next 7 days of passes ≥ 10°. The values pass through the URL so the page stays shareable.

No JS? Fill the form by hand. The geolocation button needs JavaScript.